Regional Weather Roundup
Issued by NWS

Home | Current Version | Previous Version | Text Only | Print | Product List | Glossary On
Versions: 1 2 3 4 5 6 7 8 9 10 11 12 13 14 15 16 17 18 19 20 21 22 23 24 25 26 27 28 29 30 31 32 33 34 35 36 37 38 39 40 41 42 43 44 45 46 47 48 49 50
000
ASUS45 KSLC 160510
RWRUT

UTAH REGIONAL WEATHER ROUNDUP
NATIONAL WEATHER SERVICE SALT LAKE CITY UT
1100 PM MDT MON SEP 15 2014

UTZ001>011-023>025-160600-

NORTHERN UTAH

CITY           SKY/WX    TMP DP  RH WIND       PRES   REMARKS
HILL AFB       CLEAR     69  39  33 E15       30.12R
LOGAN          CLEAR     60  47  61 NE5       30.11R
OGDEN          CLEAR     68  40  35 S9        30.09R
PROVO AIRPORT  CLEAR     64  46  52 SE5       30.12S
SALT LAKE CITY PTCLDY    71  40  32 S8        30.07S
VERNAL         CLEAR     63  43  48 NW7       30.18R
WENDOVER       PTCLDY    72  39  30 NE5       30.07R
HEBER CITY     CLEAR     50  43  76 CALM      30.21R
WEST JORDAN    CLEAR     68  37  32 CALM      30.11R

$$

UTZ012>022-026-027-160600-

SOUTHERN UTAH

CITY           SKY/WX    TMP DP  RH WIND       PRES   REMARKS
BRYCE CANYON   CLEAR     49  42  77 W6        30.37R
CEDAR CITY     CLEAR     68  39  34 SE9       30.18S
MILFORD        CLEAR     68  39  34 SW5       30.13R
MOAB/CYNLANDS  CLEAR     69  38  32 W5        30.10R
PRICE          CLEAR     66  35  31 N10       30.22R
ST GEORGE      CLEAR     82  43  24 CALM      29.98R
KANAB            N/A     66  39  37 NW5       30.18R

$$

REGIONAL REPORTS     COLORADO/ARIZONA

CITY           SKY/WX    TMP DP  RH WIND       PRES   REMARKS
CRAIG, CO      CLEAR     49  41  74 SE3       30.27R
GRAND JUNCTION CLEAR     65  43  44 E5        30.15R
RIFLE          CLEAR     59  42  53 E5        30.24R
MONTROSE       CLEAR     64  40  41 SE9       30.26R
CORTEZ         PTCLDY    60  42  51 N3        30.26R
PAGE, AZ       CLEAR     80  39  23 S3        30.08S
GRAND CANYON   CLEAR     55  44  66 E3        30.31R
KINGMAN        CLEAR     74  55  51 E5        30.02R
FLAGSTAFF      CLEAR     55  47  74 CALM      30.32S

$$

REGIONAL REPORTS    NEVADA/IDAHO/WYOMING

CITY           SKY/WX    TMP DP  RH WIND       PRES   REMARKS
LAS VEGAS, NV  PTCLDY    92  45  19 SW10      29.85R
ELY            PTCLDY    60  37  42 S12       30.22S
ELKO           CLEAR     68  29  23 NE6       30.09R
POCATELLO, ID  CLEAR     65  35  33 E6        30.09S
BURLEY         PTCLDY    56  45  66 CALM      30.05S
EVANSTON, WY   CLEAR     58  31  35 SE9       30.31R
ROCK SPRINGS   CLEAR     62  34  35 SW5       30.28R

$$


USA.gov is the U.S. government's official web portal to all federal, state and local government web resources and services.